Hourly Weather Roundup
Issued by NWS Central Illinois

Home | Current Version | Previous Version | Text Only | Print | Product List | Glossary Off
Versions: 1 2 3 4 5 6 7 8 9 10 11 12 13 14 15 16 17 18 19 20 21 22 23 24 25 26 27 28 29 30 31 32 33 34 35 36 37 38 39 40 41 42 43 44 45 46 47 48 49 50

000
NZUS43 KILX 180610
HWRILX

Area Weather Roundup
National Weather Service Lincoln IL
100 AM CDT WED OCT 18 2017

NOTE:  "FAIR" indicates few or no clouds below 12,000 feet, with
       no sigificant weather and/or obstructions to visibility.


CITY           SKY/WX    TMP DP  RH WIND       PRES   REMARKS
Bloomington    PTCLDY    46  40  79 S10       30.19F
6HR MIN TEMP:  46; 6HR MAX TEMP:  54;

Champaign      CLEAR     51  40  65 S12       30.21F
6HR MIN TEMP:  47; 6HR MAX TEMP:  54;

Danville       CLEAR     47  38  72 S6        30.20S
6HR MIN TEMP:  47; 6HR MAX TEMP:  56;

Decatur        CLEAR     48  40  73 S7        30.21S
6HR MIN TEMP:  43; 6HR MAX TEMP:  57;

Effingham      CLEAR     43  42  97 CALM      30.25S
6HR MIN TEMP:  42; 6HR MAX TEMP:  55;

Flora          CLEAR     45  42  91 CALM      30.24S
6HR MIN TEMP:  44; 6HR MAX TEMP:  59;

Galesburg      CLEAR     50  42  73 S6        30.14F
6HR MIN TEMP:  50; 6HR MAX TEMP:  60;

Jacksonville   CLEAR     52  41  66 S6        30.17S
6HR MIN TEMP:  50; 6HR MAX TEMP:  59;

Lacon          CLEAR     54  40  59 S8        30.14S
6HR MIN TEMP:  54; 6HR MAX TEMP:  59;

Lawrenceville  CLEAR     47  43  86 CALM      30.25S
6HR MIN TEMP:  47; 6HR MAX TEMP:  56;

Litchfield     PTCLDY    48  41  77 S8        30.20S
6HR MIN TEMP:  46; 6HR MAX TEMP:  55;

$$


CITY           SKY/WX    TMP DP  RH WIND       PRES   REMARKS
Lincoln        CLEAR     49  42  75 S6        30.19S
6HR MIN TEMP:  48; 6HR MAX TEMP:  59;

Macomb         CLEAR     50  42  74 S9        30.16F
6HR MIN TEMP:  47; 6HR MAX TEMP:  59;

Mattoon        CLEAR     49  41  74 S6        30.22S
6HR MIN TEMP:  48; 6HR MAX TEMP:  58;

Mt Carmel AP   CLEAR     45  41  87 CALM      30.25S
6HR MIN TEMP:  44; 6HR MAX TEMP:  57;

Olney-Noble AP CLEAR     43  41  93 CALM      30.25S
Paris AP       PTCLDY    43  40  88 S5        30.24S
6HR MIN TEMP:  41; 6HR MAX TEMP:  51;

Peoria         CLEAR     51  41  68 S8        30.16F
6HR MIN TEMP:  51; 6HR MAX TEMP:  59;

Pontiac        PTCLDY    50  43  76 S7        30.18S
6HR MIN TEMP:  48; 6HR MAX TEMP:  60;

Rantoul        CLEAR     46  41  84 S3        30.21S
6HR MIN TEMP:  46; 6HR MAX TEMP:  55;

Robinson       CLEAR     39  39 100 CALM      30.26S
6HR MIN TEMP:  38; 6HR MAX TEMP:  50;

Springfield    CLEAR     54  42  64 S10       30.18F
6HR MIN TEMP:  52; 6HR MAX TEMP:  59;

Taylorville    CLEAR     46  41  83 S6        30.20F
6HR MIN TEMP:  46; 6HR MAX TEMP:  55;

$$

...REGIONAL REPORTS...


CITY           SKY/WX    TMP DP  RH WIND       PRES   REMARKS
Chicago O`Hare CLEAR     56  39  53 SW9       30.14S
Kankakee       PTCLDY    47  39  76 S6        30.19F
Moline         CLEAR     55  41  59 S12       30.10F
Mount Sterling CLEAR     46  40  79 S6        30.14F
Mount Vernon   CLEAR     38  38 100 CALM      30.23F FOG
Pittsfield     CLEAR     50  41  70 S3        30.17S
Quincy         CLEAR     52  40  63 S6        30.14F
Rockford       CLEAR     49  41  74 CALM      30.14F
$$


CITY           SKY/WX    TMP DP  RH WIND       PRES   REMARKS
Burlington     CLEAR     53  43  68 S8        30.12F
Cedar Rapids   CLEAR     51  43  74 S8        30.06F
Des Moines     CLEAR     54  46  74 S9        30.02F
Kirksville     CLEAR     53  47  79 S8        30.12S
Ottumwa        CLEAR     52  44  74 S10       30.06F
St Louis       CLEAR     55  41  59 S8        30.19F
$$


CITY           SKY/WX    TMP DP  RH WIND       PRES   REMARKS
Terre Haute    CLEAR     41  38  89 CALM      30.25S
Evansville     CLEAR     45  43  93 CALM      30.26S
Indianapolis   CLEAR     46  39  76 SW5       30.25S
Lafayette      CLEAR     48  41  76 SW5       30.22S
Madison        CLEAR     55  42  61 S9        30.08S
Milwaukee      PTCLDY    57  42  57 SW12      30.11S
$$






USA.gov is the U.S. government's official web portal to all federal, state and local government web resources and services.